Time,TemperatureF,DewpointF,PressureIn,WindDirection,WindDirectionDegrees,WindSpeedMPH,WindSpeedGustMPH,Humidity,HourlyPrecipIn,Conditions,Clouds,dailyrainin,SoftwareType,DateUTC
2013-01-31 00:07:00,38.8,25.0,30.18,SSW,195,1.0,3.0,58,0.00,,,0.00,weatherlink.com 1.10,2013-01-31 06:07:00,
2013-01-31 00:22:00,38.2,25.0,30.17,SSW,197,3.0,3.0,59,0.00,,,0.00,weatherlink.com 1.10,2013-01-31 06:22:00,
2013-01-31 00:37:00,38.0,25.0,30.18,SSW,203,2.0,4.0,59,0.00,,,0.00,weatherlink.com 1.10,2013-01-31 06:37:00,
2013-01-31 00:52:00,38.5,24.0,30.18,SSW,210,5.0,6.0,57,0.00,,,0.00,weatherlink.com 1.10,2013-01-31 06:52:00,
2013-01-31 01:07:00,37.9,25.0,30.19,SW,221,3.0,6.0,59,0.00,,,0.00,weatherlink.com 1.10,2013-01-31 07:07:00,
2013-01-31 01:22:00,37.5,25.0,30.18,SSW,211,4.0,5.0,60,0.00,,,0.00,weatherlink.com 1.10,2013-01-31 07:22:00,
2013-01-31 01:37:00,36.9,24.0,30.17,SSW,198,2.0,3.0,61,0.00,,,0.00,weatherlink.com 1.10,2013-01-31 07:37:00,
2013-01-31 01:52:00,36.8,24.0,30.18,SSW,209,4.0,4.0,61,0.00,,,0.00,weatherlink.com 1.10,2013-01-31 07:52:00,
2013-01-31 02:07:00,36.4,24.0,30.18,SSW,210,2.0,4.0,62,0.00,,,0.00,weatherlink.com 1.10,2013-01-31 08:07:00,
2013-01-31 02:22:00,35.9,24.0,30.18,SSE,163,1.0,5.0,63,0.00,,,0.00,weatherlink.com 1.10,2013-01-31 08:22:00,
2013-01-31 02:37:00,35.6,24.0,30.18,SW,219,4.0,5.0,63,0.00,,,0.00,weatherlink.com 1.10,2013-01-31 08:37:00,
2013-01-31 02:52:00,35.4,24.0,30.18,SSW,198,3.0,6.0,64,0.00,,,0.00,weatherlink.com 1.10,2013-01-31 08:52:00,
2013-01-31 03:07:00,35.0,24.0,30.18,SSW,195,3.0,5.0,65,0.00,,,0.00,weatherlink.com 1.10,2013-01-31 09:07:00,
2013-01-31 03:22:00,35.0,24.0,30.18,SSW,210,4.0,5.0,64,0.00,,,0.00,weatherlink.com 1.10,2013-01-31 09:22:00,
2013-01-31 03:37:00,34.7,24.0,30.18,SSW,204,2.0,4.0,65,0.00,,,0.00,weatherlink.com 1.10,2013-01-31 09:37:00,
2013-01-31 03:52:00,35.0,24.0,30.18,SSW,200,4.0,7.0,64,0.00,,,0.00,weatherlink.com 1.10,2013-01-31 09:52:00,
2013-01-31 04:07:00,35.7,23.0,30.19,SW,222,6.0,9.0,61,0.00,,,0.00,weatherlink.com 1.10,2013-01-31 10:07:00,
2013-01-31 04:22:00,36.0,23.0,30.18,SW,215,4.0,8.0,60,0.00,,,0.00,weatherlink.com 1.10,2013-01-31 10:22:00,
2013-01-31 04:37:00,35.9,24.0,30.19,SSW,212,4.0,6.0,62,0.00,,,0.00,weatherlink.com 1.10,2013-01-31 10:37:00,
2013-01-31 04:52:00,35.4,23.0,30.18,South,190,2.0,6.0,62,0.00,,,0.00,weatherlink.com 1.10,2013-01-31 10:52:00,
2013-01-31 05:07:00,35.2,24.0,30.18,SSW,205,2.0,5.0,64,0.00,,,0.00,weatherlink.com 1.10,2013-01-31 11:07:00,
2013-01-31 05:22:00,35.1,24.0,30.17,SSW,203,5.0,6.0,64,0.00,,,0.00,weatherlink.com 1.10,2013-01-31 11:22:00,
2013-01-31 05:37:00,34.9,24.0,30.17,SW,221,3.0,5.0,64,0.00,,,0.00,weatherlink.com 1.10,2013-01-31 11:37:00,
2013-01-31 05:53:00,34.3,24.0,30.18,South,181,2.0,4.0,67,0.00,,,0.00,weatherlink.com 1.10,2013-01-31 11:53:00,
2013-01-31 06:08:00,34.1,24.0,30.18,SW,233,5.0,8.0,67,0.00,,,0.00,weatherlink.com 1.10,2013-01-31 12:08:00,
2013-01-31 06:23:00,33.9,24.0,30.19,SW,232,4.0,7.0,67,0.00,,,0.00,weatherlink.com 1.10,2013-01-31 12:23:00,
2013-01-31 06:38:00,34.0,24.0,30.19,SW,231,3.0,5.0,67,0.00,,,0.00,weatherlink.com 1.10,2013-01-31 12:38:00,
2013-01-31 06:53:00,33.9,24.0,30.19,SW,221,1.0,5.0,68,0.00,,,0.00,weatherlink.com 1.10,2013-01-31 12:53:00,
2013-01-31 07:08:00,33.3,24.0,30.19,South,190,2.0,2.0,69,0.00,,,0.00,weatherlink.com 1.10,2013-01-31 13:08:00,
2013-01-31 07:23:00,32.9,24.0,30.20,SSE,156,1.0,3.0,70,0.00,,,0.00,weatherlink.com 1.10,2013-01-31 13:23:00,
2013-01-31 07:38:00,33.0,25.0,30.20,SSE,160,2.0,3.0,71,0.00,,,0.00,weatherlink.com 1.10,2013-01-31 13:38:00,
2013-01-31 07:53:00,33.7,25.0,30.21,SSE,150,2.0,5.0,71,0.00,,,0.00,weatherlink.com 1.10,2013-01-31 13:53:00,
2013-01-31 08:08:00,35.7,25.0,30.22,SSW,211,7.0,8.0,64,0.00,,,0.00,weatherlink.com 1.10,2013-01-31 14:08:00,
2013-01-31 08:23:00,37.0,24.0,30.22,SSW,210,6.0,9.0,60,0.00,,,0.00,weatherlink.com 1.10,2013-01-31 14:23:00,
2013-01-31 08:38:00,38.2,24.0,30.22,SSE,150,2.0,8.0,58,0.00,,,0.00,weatherlink.com 1.10,2013-01-31 14:38:00,
2013-01-31 08:53:00,39.8,25.0,30.22,SSW,210,3.0,7.0,55,0.00,,,0.00,weatherlink.com 1.10,2013-01-31 14:53:00,
2013-01-31 09:08:00,41.3,26.0,30.22,South,179,6.0,10.0,54,0.00,,,0.00,weatherlink.com 1.10,2013-01-31 15:08:00,
2013-01-31 09:23:00,42.0,27.0,30.23,SSE,156,3.0,9.0,55,0.00,,,0.00,weatherlink.com 1.10,2013-01-31 15:23:00,
2013-01-31 09:38:00,43.6,26.0,30.23,WSW,240,7.0,10.0,51,0.00,,,0.00,weatherlink.com 1.10,2013-01-31 15:38:00,
2013-01-31 09:53:00,45.2,27.0,30.23,South,187,6.0,10.0,50,0.00,,,0.00,weatherlink.com 1.10,2013-01-31 15:53:00,
2013-01-31 10:08:00,47.7,28.0,30.23,SW,215,6.0,10.0,46,0.00,,,0.00,weatherlink.com 1.10,2013-01-31 16:08:00,
2013-01-31 10:23:00,49.9,28.0,30.24,SW,232,4.0,9.0,43,0.00,,,0.00,weatherlink.com 1.10,2013-01-31 16:23:00,
2013-01-31 10:38:00,52.1,29.0,30.24,South,169,5.0,10.0,42,0.00,,,0.00,weatherlink.com 1.10,2013-01-31 16:38:00,
2013-01-31 10:53:00,54.2,28.0,30.23,South,170,5.0,11.0,36,0.00,,,0.00,weatherlink.com 1.10,2013-01-31 16:53:00,
2013-01-31 11:08:00,56.1,27.0,30.23,SSW,193,7.0,11.0,33,0.00,,,0.00,weatherlink.com 1.10,2013-01-31 17:08:00,
2013-01-31 11:24:00,58.0,26.0,30.23,South,169,5.0,13.0,29,0.00,,,0.00,weatherlink.com 1.10,2013-01-31 17:24:00,
2013-01-31 11:39:00,59.7,26.0,30.22,SW,217,9.0,14.0,28,0.00,,,0.00,weatherlink.com 1.10,2013-01-31 17:39:00,
2013-01-31 11:54:00,60.3,24.0,30.22,WSW,250,3.0,12.0,25,0.00,,,0.00,weatherlink.com 1.10,2013-01-31 17:54:00,
2013-01-31 12:09:00,60.9,26.0,30.22,SW,235,6.0,11.0,26,0.00,,,0.00,weatherlink.com 1.10,2013-01-31 18:09:00,
2013-01-31 12:24:00,62.0,24.0,30.21,WSW,246,11.0,12.0,23,0.00,,,0.00,weatherlink.com 1.10,2013-01-31 18:24:00,
2013-01-31 12:39:00,63.0,23.0,30.21,WSW,238,7.0,11.0,22,0.00,,,0.00,weatherlink.com 1.10,2013-01-31 18:39:00,
2013-01-31 12:54:00,63.7,23.0,30.19,West,266,6.0,12.0,21,0.00,,,0.00,weatherlink.com 1.10,2013-01-31 18:54:00,
2013-01-31 13:09:00,64.4,23.0,30.17,WSW,255,8.0,15.0,21,0.00,,,0.00,weatherlink.com 1.10,2013-01-31 19:09:00,
2013-01-31 13:24:00,65.2,22.0,30.17,SSW,204,7.0,13.0,19,0.00,,,0.00,weatherlink.com 1.10,2013-01-31 19:24:00,
2013-01-31 13:39:00,65.4,22.0,30.16,SW,217,6.0,15.0,19,0.00,,,0.00,weatherlink.com 1.10,2013-01-31 19:39:00,
2013-01-31 13:54:00,66.3,23.0,30.15,SSW,210,6.0,14.0,19,0.00,,,0.00,weatherlink.com 1.10,2013-01-31 19:54:00,
2013-01-31 14:24:00,67.4,22.0,30.14,SW,229,7.0,15.0,18,0.00,,,0.00,weatherlink.com 1.10,2013-01-31 20:24:00,
2013-01-31 14:39:00,67.9,23.0,30.14,West,265,11.0,18.0,18,0.00,,,0.00,weatherlink.com 1.10,2013-01-31 20:39:00,
2013-01-31 14:54:00,67.8,23.0,30.14,SSW,208,6.0,19.0,18,0.00,,,0.00,weatherlink.com 1.10,2013-01-31 20:54:00,
2013-01-31 15:09:00,68.4,23.0,30.14,WSW,252,7.0,18.0,18,0.00,,,0.00,weatherlink.com 1.10,2013-01-31 21:09:00,
2013-01-31 15:24:00,68.3,23.0,30.14,WNW,302,6.0,18.0,18,0.00,,,0.00,weatherlink.com 1.10,2013-01-31 21:24:00,
2013-01-31 15:39:00,68.3,22.0,30.13,SW,218,6.0,16.0,17,0.00,,,0.00,weatherlink.com 1.10,2013-01-31 21:39:00,
2013-01-31 15:54:00,68.5,23.0,30.12,West,275,8.0,14.0,18,0.00,,,0.00,weatherlink.com 1.10,2013-01-31 21:54:00,
2013-01-31 16:09:00,68.5,23.0,30.12,West,260,10.0,17.0,18,0.00,,,0.00,weatherlink.com 1.10,2013-01-31 22:09:00,
2013-01-31 16:24:00,68.5,22.0,30.12,WSW,257,13.0,18.0,17,0.00,,,0.00,weatherlink.com 1.10,2013-01-31 22:24:00,
2013-01-31 16:39:00,67.6,21.0,30.13,SW,226,10.0,18.0,17,0.00,,,0.00,weatherlink.com 1.10,2013-01-31 22:39:00,
2013-01-31 16:54:00,67.9,23.0,30.13,West,278,6.0,12.0,18,0.00,,,0.00,weatherlink.com 1.10,2013-01-31 22:54:00,
2013-01-31 17:09:00,68.2,23.0,30.15,WSW,246,9.0,11.0,18,0.00,,,0.00,weatherlink.com 1.10,2013-01-31 23:09:00,
2013-01-31 17:25:00,67.9,23.0,30.16,WSW,247,11.0,14.0,18,0.00,,,0.00,weatherlink.com 1.10,2013-01-31 23:25:00,
2013-01-31 17:40:00,67.4,22.0,30.16,West,270,5.0,14.0,18,0.00,,,0.00,weatherlink.com 1.10,2013-01-31 23:40:00,
2013-01-31 17:55:00,66.6,23.0,30.17,West,266,3.0,7.0,19,0.00,,,0.00,weatherlink.com 1.10,2013-01-31 23:55:00,
2013-01-31 18:10:00,65.3,23.0,30.17,SW,224,3.0,6.0,20,0.00,,,0.00,weatherlink.com 1.10,2013-02-01 00:10:00,
2013-01-31 18:25:00,64.1,24.0,30.17,WSW,245,1.0,4.0,22,0.00,,,0.00,weatherlink.com 1.10,2013-02-01 00:25:00,
2013-01-31 18:40:00,63.1,25.0,30.18,SW,235,1.0,2.0,23,0.00,,,0.00,weatherlink.com 1.10,2013-02-01 00:40:00,
2013-01-31 18:55:00,61.2,25.0,30.18,SW,235,0.0,1.0,25,0.00,,,0.00,weatherlink.com 1.10,2013-02-01 00:55:00,
2013-01-31 19:10:00,61.0,25.0,30.18,SW,235,1.0,2.0,25,0.00,,,0.00,weatherlink.com 1.10,2013-02-01 01:10:00,
2013-01-31 19:25:00,61.4,25.0,30.20,NW,314,2.0,2.0,25,0.00,,,0.00,weatherlink.com 1.10,2013-02-01 01:25:00,
2013-01-31 19:40:00,60.0,27.0,30.21,NW,307,2.0,3.0,28,0.00,,,0.00,weatherlink.com 1.10,2013-02-01 01:40:00,
2013-01-31 19:55:00,59.2,26.0,30.22,NW,306,0.0,1.0,28,0.00,,,0.00,weatherlink.com 1.10,2013-02-01 01:55:00,
2013-01-31 20:10:00,57.9,26.0,30.23,NW,306,0.0,1.0,30,0.00,,,0.00,weatherlink.com 1.10,2013-02-01 02:10:00,
2013-01-31 20:25:00,59.3,26.0,30.24,NW,318,1.0,5.0,28,0.00,,,0.00,weatherlink.com 1.10,2013-02-01 02:25:00,
2013-01-31 20:40:00,59.5,26.0,30.25,NNE,23,3.0,6.0,28,0.00,,,0.00,weatherlink.com 1.10,2013-02-01 02:40:00,
2013-01-31 20:55:00,58.7,26.0,30.25,NNE,33,5.0,6.0,29,0.00,,,0.00,weatherlink.com 1.10,2013-02-01 02:55:00,
2013-01-31 21:10:00,58.3,27.0,30.26,North,355,2.0,9.0,30,0.00,,,0.00,weatherlink.com 1.10,2013-02-01 03:10:00,
2013-01-31 21:25:00,57.5,27.0,30.26,NE,50,4.0,7.0,31,0.00,,,0.00,weatherlink.com 1.10,2013-02-01 03:25:00,
2013-01-31 21:40:00,56.9,27.0,30.27,NNE,27,4.0,11.0,32,0.00,,,0.00,weatherlink.com 1.10,2013-02-01 03:40:00,
2013-01-31 21:55:00,55.4,29.0,30.28,NNE,19,6.0,14.0,37,0.00,,,0.00,weatherlink.com 1.10,2013-02-01 03:55:00,
2013-01-31 22:10:00,53.7,30.0,30.30,ENE,77,8.0,13.0,40,0.00,,,0.00,weatherlink.com 1.10,2013-02-01 04:10:00,
2013-01-31 22:25:00,51.5,29.0,30.31,NNE,21,9.0,15.0,43,0.00,,,0.00,weatherlink.com 1.10,2013-02-01 04:25:00,
2013-01-31 22:40:00,49.9,29.0,30.32,ENE,72,14.0,16.0,45,0.00,,,0.00,weatherlink.com 1.10,2013-02-01 04:40:00,
2013-01-31 22:55:00,48.5,28.0,30.33,ENE,57,9.0,13.0,46,0.00,,,0.00,weatherlink.com 1.10,2013-02-01 04:55:00,
2013-01-31 23:10:00,46.9,28.0,30.33,NNE,18,8.0,16.0,49,0.00,,,0.00,weatherlink.com 1.10,2013-02-01 05:10:00,
2013-01-31 23:25:00,46.0,28.0,30.34,NE,45,11.0,15.0,50,0.00,,,0.00,weatherlink.com 1.10,2013-02-01 05:25:00,
2013-01-31 23:40:00,44.8,28.0,30.34,NE,56,10.0,12.0,52,0.00,,,0.00,weatherlink.com 1.10,2013-02-01 05:40:00,
2013-01-31 23:55:00,44.1,28.0,30.35,NE,43,8.0,11.0,53,0.00,,,0.00,weatherlink.com 1.10,2013-02-01 05:55:00,